Wilmington, NC

5:09 AM EDT on August 30, 2016 (GMT -0400)
Wilmington International

Weather History for KILM - September, 2015

Change the Weather History Date:

Thursday, September 24, 2015

  Actual Average Record
Temperature  
Mean Temperature 73 °F 72 °F  
Max Temperature 79 °F 82 °F 93 °F (1931)
Min Temperature 67 °F 63 °F 44 °F (1981)
Degree Days  
Heating Degree Days 0 0  
Month to date heating degree days 0 0  
Since 1 July heating degree days 0 0  
Cooling Degree Days 8 8  
Month to date cooling degree days 288 255  
Year to date cooling degree days 2073 1878  
Growing Degree Days 22 (Base 50)    
Moisture  
Dew Point 67 °F    
Average Humidity 87    
Maximum Humidity 100    
Minimum Humidity 73    
Precipitation  
Precipitation 0.60 in 0.26 in 3.43 in (1947)
Month to date precipitation 2.51 6.40  
Year to date precipitation 42.45 45.37  
Sea Level Pressure  
Sea Level Pressure 30.03 in    
Wind  
Wind Speed 13 mph (NE)    
Max Wind Speed 20 mph    
Max Gust Speed 26 mph    
Visibility 9 miles    
Events Rain    
T = Trace of Precipitation, MM = Missing Value Source: NWS Daily Summary

Daily Weather History Graph

Daily Weather History Graph

Search for Another Location

Airport or City:

Trip Planner

Search our weather history database for the weather conditions in past years. The results will help you decide how hot, cold, wet, or windy it might be!

Date:

Astronomy

Sep. 24, 2015 Rise Set
Actual Time 7:00 AM EDT 7:05 PM EDT
Civil Twilight 6:35 AM EDT 7:30 PM EDT
Nautical Twilight 6:06 AM EDT 8:00 PM EDT
Astronomical Twilight 5:37 AM EDT 8:29 PM EDT
Moon 4:43 PM EDT (9/24) 2:55 AM EDT (9/24)
Length of Visible Light 12h 55m
Length of Day
12h 04m
Waxing Gibbous, 83% of the Moon is Illuminated
Sep 24
Waxing Gibbous
Sep 27
Full
Oct 4
Last Quarter
Oct 12
New
Oct 20
First Quarter

Hourly Weather History & Observations

Time (EDT) Temp. Dew Point Humidity Pressure Visibility Wind Dir Wind Speed Gust Speed Precip Events Conditions
12:53 AM 71.1 °F 62.1 °F 73% 30.04 in 10.0 mi North 13.8 mph - N/A   Overcast
1:53 AM 70.0 °F 62.1 °F 76% 30.04 in 10.0 mi NNE 13.8 mph 24.2 mph N/A   Mostly Cloudy
2:53 AM 70.0 °F 62.1 °F 76% 30.02 in 10.0 mi NNE 15.0 mph - N/A   Overcast
3:40 AM 70.0 °F 63.0 °F 78% 30.01 in 10.0 mi NNE 15.0 mph - N/A   Overcast
3:53 AM 70.0 °F 63.0 °F 78% 30.01 in 10.0 mi NNE 12.7 mph - N/A   Overcast
4:06 AM 70.0 °F 63.0 °F 78% 30.00 in 10.0 mi NNE 17.3 mph 23.0 mph N/A   Overcast
4:53 AM 69.1 °F 63.0 °F 81% 30.00 in 10.0 mi NNE 12.7 mph - 0.00 in Rain Light Rain
5:53 AM 69.1 °F 63.0 °F 81% 30.01 in 10.0 mi NNE 13.8 mph 24.2 mph 0.00 in   Overcast
6:32 AM 69.1 °F 64.0 °F 84% 30.01 in 10.0 mi NNE 16.1 mph 25.3 mph N/A   Overcast
6:53 AM 69.1 °F 64.0 °F 84% 30.01 in 10.0 mi NNE 18.4 mph - N/A   Overcast
7:29 AM 66.9 °F 64.9 °F 93% 30.01 in 10.0 mi NNE 12.7 mph - 0.01 in   Overcast
7:53 AM 68.0 °F 64.9 °F 90% 30.02 in 10.0 mi NNE 13.8 mph - 0.01 in Rain Light Rain
8:41 AM 68.0 °F 64.9 °F 90% 30.03 in 10.0 mi NNE 13.8 mph - 0.02 in   Overcast
8:53 AM 68.0 °F 64.9 °F 90% 30.04 in 10.0 mi NE 13.8 mph - 0.02 in Rain Light Rain
9:16 AM 69.1 °F 66.0 °F 90% 30.05 in 10.0 mi NE 11.5 mph - 0.00 in   Overcast
9:53 AM 70.0 °F 66.9 °F 90% 30.06 in 10.0 mi NE 13.8 mph - 0.00 in   Overcast
10:27 AM 71.1 °F 66.9 °F 87% 30.05 in 10.0 mi NE 15.0 mph - 0.00 in Rain Light Rain
10:34 AM 71.1 °F 66.9 °F 87% 30.06 in 10.0 mi NE 15.0 mph - 0.00 in Rain Light Rain
10:53 AM 71.1 °F 68.0 °F 90% 30.06 in 6.0 mi NE 12.7 mph - 0.01 in Rain Light Rain
11:53 AM 73.0 °F 69.1 °F 87% 30.06 in 10.0 mi NE 9.2 mph - 0.00 in   Overcast
12:53 PM 75.9 °F 71.1 °F 85% 30.05 in 10.0 mi NNE 11.5 mph - 0.00 in   Overcast
1:53 PM 78.1 °F 70.0 °F 76% 30.04 in 10.0 mi NE 13.8 mph - N/A   Overcast
2:53 PM 77.0 °F 71.1 °F 82% 30.04 in 10.0 mi NE 12.7 mph - 0.00 in   Overcast
3:53 PM 77.0 °F 71.1 °F 82% 30.03 in 10.0 mi NE 13.8 mph - 0.00 in   Overcast
4:53 PM 75.9 °F 70.0 °F 82% 30.03 in 10.0 mi NNE 17.3 mph 21.9 mph N/A   Overcast
5:41 PM 73.9 °F 70.0 °F 87% 30.03 in 10.0 mi NNE 12.7 mph - 0.03 in Rain Light Rain
5:53 PM 73.0 °F 71.1 °F 93% 30.04 in 10.0 mi NE 12.7 mph - 0.04 in Rain Light Rain
6:53 PM 73.0 °F 71.1 °F 93% 30.04 in 7.0 mi NE 11.5 mph - 0.03 in Rain Light Rain
7:53 PM 72.0 °F 70.0 °F 93% 30.04 in 10.0 mi NE 13.8 mph - 0.03 in   Overcast
8:53 PM 72.0 °F 70.0 °F 93% 30.06 in 10.0 mi NE 12.7 mph - 0.02 in Rain Light Rain
9:53 PM 72.0 °F 70.0 °F 93% 30.05 in 5.0 mi NE 11.5 mph - 0.12 in Rain Rain
10:00 PM 72.0 °F 70.0 °F 93% 30.05 in 7.0 mi NE 10.4 mph - 0.01 in Rain Rain
10:53 PM 72.0 °F 70.0 °F 93% 30.04 in 7.0 mi NE 11.5 mph - 0.05 in Rain Rain
11:22 PM 72.0 °F 70.0 °F 93% 30.04 in 5.0 mi NE 13.8 mph - 0.09 in Rain Rain
11:34 PM 72.0 °F 70.0 °F 93% 30.04 in 6.0 mi NE 11.5 mph - 0.12 in Rain Rain
11:53 PM 72.0 °F 71.1 °F 97% 30.04 in 3.0 mi NE 10.4 mph - 0.19 in Rain Heavy Rain